Weather History for KMTJ - September, 2012

Change the Weather History Date:

Wednesday, September 26, 2012

  Actual Average Record
Temperature  
Mean Temperature 47 °F 58 °F  
Max Temperature 55 °F 73 °F 86 °F (2001)
Min Temperature 39 °F 43 °F 34 °F (2000)
Degree Days  
Heating Degree Days 18 7  
Month to date heating degree days 47 89  
Since 1 July heating degree days 47 94  
Cooling Degree Days 0 0  
Month to date cooling degree days 50 37  
Year to date cooling degree days 906 642  
Moisture  
Dew Point 44 °F    
Average Humidity 86    
Maximum Humidity 100    
Minimum Humidity 71    
Precipitation  
Precipitation 0.29 in 0.05 in 0.29 in (2012)
Month to date precipitation 0.81 1.14  
Year to date precipitation 4.86 8.47  
Sea Level Pressure  
Sea Level Pressure 30.10 in    
Wind  
Wind Speed 4 mph (SE)    
Max Wind Speed 14 mph    
Max Gust Speed 17 mph    
Visibility 10 miles    
Events Rain , Thunderstorm    
T = Trace of Precipitation, MM = Missing Value Source: NWS Daily Summary

Daily Weather History Graph

Daily Weather History Graph

Search for Another Location

Airport or City:

Trip Planner

Search our weather history database for the weather conditions in past years. The results will help you decide how hot, cold, wet, or windy it might be!

Date:

Astronomy

Sep. 26, 2012 Rise Set
Actual Time 7:03 AM MDT 7:01 PM MDT
Civil Twilight 6:36 AM MDT 7:27 PM MDT
Nautical Twilight 6:06 AM MDT 7:58 PM MDT
Astronomical Twilight 5:34 AM MDT 8:29 PM MDT
Moon 5:00 PM MDT (9/26) 3:34 AM MDT (9/26)
Length of Visible Light 12h 50m
Length of Day
11h 58m
Waxing Gibbous, 88% of the Moon is Illuminated
Sep 26
Waxing Gibbous
Sep 29
Full
Oct 8
Last Quarter
Oct 15
New
Oct 21
First Quarter

Hourly Weather History & Observations

Time (MDT) Temp. Windchill Dew Point Humidity Pressure Visibility Wind Dir Wind Speed Gust Speed Precip Events Conditions
12:53 AM 45.0 °F 41.2 °F 43.0 °F 93% 30.02 in 10.0 mi SE 6.9 mph - N/A   Clear
2:53 AM 42.1 °F - 39.9 °F 92% 30.02 in 10.0 mi Calm Calm - N/A   Clear
3:53 AM 41.0 °F 37.1 °F 39.9 °F 96% 30.02 in 10.0 mi SSE 5.8 mph - N/A   Clear
4:53 AM 41.0 °F 36.4 °F 39.9 °F 96% 30.03 in 10.0 mi SSE 6.9 mph - N/A   Clear
5:53 AM 41.0 °F 38.0 °F 39.0 °F 93% 30.03 in 10.0 mi South 4.6 mph - N/A   Clear
6:53 AM 39.0 °F 36.8 °F 37.9 °F 96% 30.07 in 10.0 mi ESE 3.5 mph - N/A   Clear
7:53 AM 41.0 °F - 39.0 °F 93% 30.09 in 10.0 mi Calm Calm - N/A   Scattered Clouds
8:53 AM 46.0 °F - 42.1 °F 86% 30.09 in 10.0 mi Calm Calm - N/A   Overcast
9:53 AM 50.0 °F - 46.0 °F 86% 30.09 in 10.0 mi North 5.8 mph - N/A   Mostly Cloudy
10:53 AM 52.0 °F - 44.1 °F 74% 30.09 in 10.0 mi Calm Calm - N/A   Partly Cloudy
11:53 AM 54.0 °F - 46.0 °F 75% 30.08 in 10.0 mi NW 9.2 mph - N/A   Partly Cloudy
12:53 PM 54.0 °F - 44.1 °F 69% 30.08 in 10.0 mi Calm Calm - N/A   Scattered Clouds
1:16 PM 53.6 °F - 44.6 °F 72% 30.20 in 10.0 mi Calm Calm - 0.00 in Rain , Thunderstorm Light Rain
1:31 PM 53.6 °F - 44.6 °F 72% 30.20 in 10.0 mi WSW 3.5 mph - 0.00 in Rain Light Rain
1:53 PM 53.1 °F - 46.0 °F 77% 30.10 in 7.0 mi Calm Calm - 0.02 in Rain Light Rain
2:53 PM 53.1 °F - 48.0 °F 83% 30.10 in 9.0 mi NW 6.9 mph - 0.01 in Rain Light Rain
4:53 PM 50.0 °F - 48.0 °F 93% 30.13 in 10.0 mi ESE 11.5 mph - 0.12 in Rain Light Rain
5:53 PM 52.0 °F - 48.9 °F 89% 30.14 in 10.0 mi South 4.6 mph - 0.00 in   Overcast
6:53 PM 52.0 °F - 48.9 °F 89% 30.13 in 10.0 mi NE 4.6 mph - N/A   Overcast
7:53 PM 48.9 °F - 48.0 °F 97% 30.15 in 10.0 mi NNW 3.5 mph - N/A   Overcast
8:53 PM 48.0 °F - 46.9 °F 96% 30.14 in 10.0 mi Calm Calm - N/A   Mostly Cloudy
9:53 PM 46.9 °F - 45.0 °F 93% 30.14 in 10.0 mi Calm Calm - N/A   Clear
10:53 PM 45.0 °F 42.6 °F 45.0 °F 100% 30.14 in 10.0 mi East 4.6 mph - N/A   Clear
11:53 PM 44.1 °F 42.5 °F 44.1 °F 100% 30.15 in 9.0 mi South 3.5 mph - N/A   Partly Cloudy